User: anonymous   Login
Location: D.A.R.C. Observatory
(36.7133°N, 120.8553°W)
Time: 04:29:55
(UTC-07:00)
Language:

USA 215 - Orbit

View from above orbital plane
View from above orbital plane
View from above satellite
View from above satellite

Ground track
Ground track

The orbit data is extracted from the following two-line orbital elements,

1 37162U 10046A   16236.86797296 0.00000000  00000-0  00000-0 0    05
2 37162 123.0033 332.7568 0003882 125.8434 234.1566 13.41423963    08
Epoch (UTC): 23 August 2016 20:49:52
Eccentricity: 0.0003882
inclination: 123.0033°
perigee height: 1101 km
apogee height: 1107 km
right ascension of ascending node: 332.7568°
argument of perigee: 125.8434°
revolutions per day: 13.41423963
mean anomaly at epoch: 234.1566°
orbit number at epoch: 0

The dashed part of the orbit path shows where the satellite is in the earth's shadow,  

DLR